Showing default

HULIANWANG DIGUI-98, 66414

Orbit data source: Space-Track

HULIANWANG DIGUI-98, 66414 is a payload satellite owned by Zhongguo Xingwang (CN) in LEO that was launched on Mon, 10 Nov 2025 UTC via a CHANG ZHENG 12 launch vehicle from the Wenchang Satellite Launch Center (WSC). Payload-class satellites include a variety of spacecraft equipped with specific instruments for various scientific and technological missions. These include communications satellites like Starlink; space stations such as the ISS; scientific satellites like the Hubble; Earth observation satellites from companies like Planet Labs, Umbra, and HawkEye 360; GPS; miniature CubeSats for education and research; and military/defense satellites.

Loading next visibility...
Identifier
66414, 2025-258C
Orbit
LEO
Country
Flag of CNCN / PRC
Related business
Manufacturer
SECM
Mission
Operational Civil Communications
Bus & Motor
XINGWANG S, Unknown motor
Mass
~800 kg wet, ~800 kg dry
Launch date (UTC)
2025-11-10 (7 months ago)
Launch vehicle
CHANG ZHENG 12
Launch site
Wenchang Satellite Launch Center (WSC)
Object type
Payload
Rocket body
Debris
Shape & HBR
Box + 2 Pan, 1.1 m
Radar Cross Section
5.935 m², Large (>1 m²)

Expand to show TLE details & history
Last TLE update: 1 day ago

TLE from 1 day ago
0 HULIANWANG DIGUI-98
1 66414U 25258C   26170.78671290 -.00000088  00000-0  77740-4 0  9995
2 66414  50.0055 286.5445 0001161 151.8368 208.2567 13.29321381 30076
Epoch: 2026-06-19T18:52Z
TLE epoch observation values (Epoch: 2026-06-19T18:52:51.994Z)
Latitude
-0.00003°
Longitude
95.31715°
Altitude
1,150.6 km
Speed
7.278 km/s
True Right ascension
19h 06m 10s
True Declination
0° 00' 00"
Sunlit
Object was in full shadow at epoch
Visualization orbit readout
Latitude
Unknown
Longitude
Unknown
Altitude
Unknown
Speed
Unknown
Apparent Right ascension
Unknown
Apparent Declination
Unknown
Sunlit
N/A
Visualization observer readout
Local Sidereal Time
07:17:58
Azimuth
Unknown
Elevation
Unknown
Doppler factor
Unknown
Orbital elements
Apogee altitude
1,150.903 km
Perigee altitude
1,149.155 km
Semi-major axis
7,528.166 km
Eccentricity
0.00012
Inclination
50.0055°
RAAN
286.5445°
Arg. of periapsis
151.8368°
True anomaly
208.2504°
Mean anomaly
208.2567°
Eccentric anomaly
208.25355°
Mean motion
3.32284 °/min
Orbital period
108.34 mins
BSTAR
0.00007774
Loading maneuver chart data...
Computing Atmospheric mass density...
Loading historical data...
Loading historical data...
Loading historical data...
Loading historical data...
Loading historical data...
Loading historical data...
Loading historical data...

Documentation

Showing up to 5 results
|